This is the latest recevied weather packets stored in our database for station/object DL4MGC-10. If no packets are shown the sender has not sent any weather packets the latest 10 day(s).
| Time | Temp. | Humidity | Pressure | Rain* | Wind** | Luminosity | Snow |
|---|---|---|---|---|---|---|---|
| 1788057693 | 18.33° C | 90% | 1016.8 hPa | - | - | - | - |
| 1788056792 | 19.44° C | 86% | 1016.9 hPa | - | - | - | - |
| 1788055892 | 17.78° C | 91% | 1016.9 hPa | - | - | - | - |
| 1788054992 | 16.67° C | 96% | 1016.7 hPa | - | - | - | - |
| 1788054092 | 16.67° C | 95% | 1016.7 hPa | - | - | - | - |
| 1788053192 | 16.11° C | 97% | 1016.7 hPa | - | - | - | - |
| 1788052292 | 17.22° C | 92% | 1016.7 hPa | - | - | - | - |
| 1788051392 | 16.67° C | 95% | 1016.7 hPa | - | - | - | - |
| 1788050492 | 16.11° C | 95% | 1016.8 hPa | - | - | - | - |
| 1788049592 | 16.67° C | 94% | 1016.7 hPa | - | - | - | - |
| 1788048692 | 16.11° C | 95% | 1016.8 hPa | - | - | - | - |
| 1788047791 | 16.11° C | 95% | 1016.8 hPa | - | - | - | - |
| 1788046891 | 16.67° C | 94% | 1016.8 hPa | - | - | - | - |
| 1788045991 | 16.11° C | 95% | 1016.7 hPa | - | - | - | - |
| 1788045091 | 16.67° C | 94% | 1016.6 hPa | - | - | - | - |
| 1788044191 | 17.22° C | 91% | 1016.6 hPa | - | - | - | - |
| 1788043291 | 16.67° C | 94% | 1016.5 hPa | - | - | - | - |
| 1788042391 | 17.78° C | 87% | 1016.5 hPa | - | - | - | - |
| 1788041491 | 17.22° C | 91% | 1016.5 hPa | - | - | - | - |
| 1788040591 | 16.67° C | 90% | 1016.5 hPa | - | - | - | - |
| 1788039691 | 17.22° C | 89% | 1016.4 hPa | - | - | - | - |
| 1788038790 | 17.22° C | 90% | 1016.3 hPa | - | - | - | - |
| 1788037890 | 17.22° C | 89% | 1016.4 hPa | - | - | - | - |
| 1788036990 | 17.78° C | 89% | 1016.4 hPa | - | - | - | - |
| 1788036090 | 18.33° C | 85% | 1016.3 hPa | - | - | - | - |
* Rain since midnight (hover to see other rain measurements)
** Current wind speed in m/s (hover to see current wind gust speed)